sat.trackr.live / text

‹ back to catalog

ONEWEB-0044

NORAD 45150 · 2020-008V

PAYLOAD ACTIVE UNKNOWN

§ Identity

Operator
Country
UK
Launch date
2020-02-06
Launch site
TYMSC
Launch vehicle
Mass (kg)
RCS (m²)

Purposes: comms

External: N2YO · Heavens-Above · Gunter

§ Orbital elements

Epoch: 2026-09-20T03:28:14.068128Z

Period
109.89 min
Inclination
87.8903°
Eccentricity
0.0001867
Mean motion
13.10375559 rev/d
Perigee alt
1,220.3 km
Apogee alt
1,223.1 km
Semi-major
7,599.8 km
B*
9.2551e-4
RAAN
17.3667°
Arg perigee
103.2232°
Mean anomaly
256.9104°
Rev number
32,091

§ Raw data

ONEWEB-00441 45150U 20008V   26263.14460727  .00000336  00000+0  92551-3 0  99912 45150  87.8903  17.3667 0001867 103.2232 256.9104 13.10375559320918

JSON: /api/v1/satellites/45150 · /tle

For live sub-satellite position, see the globe view (requires WebGL).

§ Visibility from observer

Set your observer location to see the next 7 days of passes ≥ 10°. The values pass through the URL so the page stays shareable.

No JS? Fill the form by hand. The geolocation button needs JavaScript.